Location: Oklahoma City
(35.4680°N, 97.5160°W)
Time: 10:23:36
(UTC-06:00)

ISS - All Passes

Search period start: 22 December 2014 00:00
Search period end: 01 January 2015 00:00
Orbit: 404 x 414 km, 51.6° (Epoch: 22 December)

Date Brightness Start Highest point End Pass type
(mag) Time Alt. Az. Time Alt. Az. Time Alt. Az.
22 Dec - 12:44:06 10° SW 12:47:22 67° SE 12:50:39 10° NE daylight
22 Dec - 14:22:13 10° WNW 14:24:15 15° NNW 14:26:16 10° N daylight
22 Dec - 19:15:10 10° NNW 19:17:49 22° NNE 19:20:28 10° E visible
22 Dec - 20:51:28 10° WNW 20:54:26 32° SW 20:57:22 10° SSE night (unlit)
23 Dec - 11:53:40 10° SSW 11:56:38 31° SE 11:59:36 10° ENE daylight
23 Dec - 13:30:29 10° W 13:33:13 23° NNW 13:35:57 10° NNE daylight
23 Dec - 18:24:53 10° N 18:26:47 14° NNE 18:28:41 10° ENE visible
23 Dec - 20:00:25 10° NW 20:03:41 71° SW 20:06:55 10° SE visible
24 Dec - 11:03:51 10° SSE 11:05:55 16° SE 11:07:59 10° E daylight
24 Dec - 12:39:05 10° WSW 12:42:14 40° NW 12:45:23 10° NE daylight
24 Dec - 19:09:35 10° NW 19:12:48 54° NE 19:16:00 10° ESE visible
24 Dec - 20:47:57 10° WSW 20:48:59 11° SW 20:50:01 10° SW night (unlit)
25 Dec - 11:47:59 10° SW 11:51:17 83° NW 11:54:36 10° NE daylight
25 Dec - 13:26:51 10° NW 13:28:18 12° NNW 13:29:46 10° N daylight
25 Dec - 18:18:53 10° NNW 18:21:48 29° NE 18:24:42 10° E visible
25 Dec - 19:55:38 10° WNW 19:58:15 22° SW 20:00:52 10° S visible
26 Dec - 10:57:13 10° SSW 11:00:23 45° SE 11:03:34 10° ENE daylight
26 Dec - 12:34:42 10° WNW 12:37:07 18° NNW 12:39:31 10° NNE daylight
26 Dec - 17:28:20 10° NNW 17:30:41 18° NNE 17:33:01 10° ENE daylight
26 Dec - 19:04:15 10° WNW 19:07:25 46° SW 19:10:33 10° SSE visible
27 Dec - 10:06:54 10° S 10:09:31 22° SE 10:12:09 10° ENE daylight
27 Dec - 11:43:00 10° W 11:45:58 30° NW 11:48:56 10° NNE daylight
27 Dec - 16:38:05 10° N 16:39:26 12° NNE 16:40:47 10° NE daylight
27 Dec - 18:13:11 10° NW 18:16:28 80° NE 18:19:43 10° SE visible
28 Dec - 09:17:41 10° SE 09:18:41 11° SE 09:19:41 10° ESE daylight
28 Dec - 10:51:36 10° WSW 10:54:51 57° NW 10:58:07 10° NE daylight
28 Dec - 12:31:33 10° NNW 12:32:00 10° NNW 12:32:28 10° NNW daylight
28 Dec - 17:22:16 10° NW 17:25:23 39° NE 17:28:28 10° ESE daylight
28 Dec - 18:59:36 10° W 19:01:41 16° SW 19:03:45 10° SSW visible
29 Dec - 10:00:31 10° SW 10:03:47 68° SE 10:07:05 10° NE daylight
29 Dec - 11:38:39 10° WNW 11:40:39 15° NNW 11:42:39 10° N daylight
29 Dec - 16:31:30 10° NNW 16:34:11 22° NNE 16:36:50 10° E daylight
29 Dec - 18:07:48 10° WNW 18:10:46 32° SW 18:13:42 10° SSE visible
30 Dec - 09:09:48 10° SSW 09:12:46 31° SE 09:15:44 10° ENE daylight
30 Dec - 10:46:37 10° W 10:49:20 23° NNW 10:52:04 10° NNE daylight
30 Dec - 15:40:55 10° N 15:42:51 15° NNE 15:44:46 10° ENE daylight
30 Dec - 17:16:27 10° NW 17:19:43 70° SW 17:22:58 10° SE daylight
31 Dec - 08:19:42 10° SSE 08:21:46 16° SE 08:23:50 10° E daylight
31 Dec - 09:54:55 10° WSW 09:58:04 40° NW 10:01:13 10° NE daylight
31 Dec - 16:25:20 10° NW 16:28:34 54° NE 16:31:46 10° ESE daylight
31 Dec - 18:03:40 10° WSW 18:04:43 11° SW 18:05:47 10° SW visible
